�������l�o���
Date,Time,MP-1(��Sv/h),MP-2(��Sv/h),MP-3(��Sv/h),MP-4(��Sv/h),MP-5(��Sv/h),MP-6(��Sv/h),MP-7(��Sv/h),MP-8(��Sv/h),����,����(m/s),���J
2023/08/18,00:00,0.520,0.776,0.481,0.961,0.710,0.326,0.575,0.533,�k��,2.6,��
2023/08/18,00:10,0.522,0.778,0.483,0.960,0.710,0.325,0.574,0.535,�k��,3.0,��
2023/08/18,00:20,0.521,0.777,0.484,0.962,0.711,0.322,0.574,0.534,�k�k��,3.1,��
2023/08/18,00:30,0.520,0.779,0.484,0.960,0.711,0.323,0.575,0.534,�k�k��,3.5,��
2023/08/18,00:40,0.520,0.776,0.483,0.961,0.710,0.323,0.575,0.532,�k�k��,4.4,��
2023/08/18,00:50,0.522,0.777,0.483,0.961,0.710,0.325,0.576,0.533,�k�k��,4.5,��
2023/08/18,01:00,0.519,0.776,0.483,0.962,0.710,0.322,0.576,0.536,�k�k��,3.8,��
2023/08/18,01:10,0.521,0.774,0.481,0.960,0.710,0.324,0.575,0.534,�k,3.6,��
2023/08/18,01:20,0.522,0.777,0.484,0.964,0.711,0.323,0.575,0.534,�k,3.8,��
2023/08/18,01:30,0.520,0.777,0.483,0.961,0.712,0.322,0.575,0.534,�k,3.6,��
2023/08/18,01:40,0.521,0.779,0.484,0.962,0.711,0.323,0.575,0.534,�k,3.1,��
2023/08/18,01:50,0.521,0.779,0.484,0.962,0.712,0.322,0.574,0.534,�k,2.5,��
2023/08/18,02:00,0.522,0.779,0.485,0.961,0.711,0.324,0.576,0.534,�k�k��,2.8,��
2023/08/18,02:10,0.521,0.778,0.484,0.961,0.710,0.322,0.573,0.533,�k,3.3,��
2023/08/18,02:20,0.521,0.781,0.484,0.962,0.711,0.323,0.575,0.534,�k�k��,2.9,��
2023/08/18,02:30,0.521,0.779,0.484,0.962,0.710,0.323,0.574,0.533,�k,2.8,��
2023/08/18,02:40,0.522,0.778,0.483,0.960,0.711,0.323,0.574,0.534,�k,2.6,��
2023/08/18,02:50,0.521,0.779,0.484,0.961,0.710,0.322,0.575,0.532,�k,3.0,��
2023/08/18,03:00,0.520,0.778,0.483,0.962,0.711,0.322,0.575,0.535,�k,2.5,��
2023/08/18,03:10,0.520,0.779,0.483,0.962,0.709,0.323,0.574,0.533,�k,2.3,��
2023/08/18,03:20,0.522,0.779,0.484,0.962,0.709,0.322,0.576,0.534,�k,2.0,��
2023/08/18,03:30,0.520,0.780,0.482,0.960,0.709,0.323,0.575,0.534,�k,1.5,��
2023/08/18,03:40,0.519,0.778,0.482,0.963,0.709,0.322,0.574,0.532,�k,1.5,��
2023/08/18,03:50,0.518,0.779,0.483,0.960,0.710,0.322,0.574,0.533,�k,1.7,��
2023/08/18,04:00,0.520,0.779,0.482,0.962,0.708,0.322,0.574,0.534,�k,1.5,��
2023/08/18,04:10,0.521,0.780,0.483,0.962,0.711,0.323,0.575,0.533,�k,1.4,��
2023/08/18,04:20,0.520,0.780,0.483,0.961,0.710,0.322,0.574,0.534,-,CALM,��
2023/08/18,04:30,0.520,0.779,0.482,0.963,0.711,0.323,0.576,0.531,-,CALM,��
2023/08/18,04:40,0.520,0.779,0.482,0.962,0.708,0.324,0.574,0.532,�k�k��,0.8,��
2023/08/18,04:50,0.520,0.780,0.483,0.964,0.711,0.321,0.572,0.532,-,CALM,��
2023/08/18,05:00,0.522,0.779,0.482,0.963,0.713,0.322,0.573,0.533,-,CALM,��
2023/08/18,05:10,0.521,0.777,0.483,0.963,0.711,0.322,0.573,0.532,-,CALM,��
2023/08/18,05:20,0.521,0.780,0.483,0.963,0.712,0.323,0.575,0.532,-,CALM,��
2023/08/18,05:30,0.522,0.780,0.484,0.962,0.711,0.322,0.575,0.534,-,CALM,��
2023/08/18,05:40,0.520,0.780,0.484,0.961,0.709,0.322,0.575,0.533,���k��,0.8,��
2023/08/18,05:50,0.520,0.780,0.483,0.961,0.710,0.323,0.575,0.534,-,CALM,��
2023/08/18,06:00,0.520,0.781,0.482,0.961,0.711,0.323,0.574,0.531,-,CALM,��
2023/08/18,06:10,0.521,0.781,0.483,0.963,0.711,0.323,0.574,0.533,-,CALM,��
2023/08/18,06:20,0.522,0.782,0.484,0.963,0.712,0.323,0.574,0.534,-,CALM,��
2023/08/18,06:30,0.523,0.781,0.483,0.965,0.710,0.324,0.575,0.533,-,CALM,��
2023/08/18,06:40,0.523,0.780,0.485,0.964,0.709,0.323,0.576,0.533,-,CALM,��
2023/08/18,06:50,0.523,0.782,0.484,0.961,0.710,0.322,0.574,0.533,�k,0.9,��
2023/08/18,07:00,0.520,0.782,0.482,0.963,0.708,0.322,0.576,0.534,�k,1.2,��
2023/08/18,07:10,0.521,0.782,0.483,0.962,0.711,0.325,0.575,0.533,�k,1.2,��
2023/08/18,07:20,0.522,0.781,0.485,0.962,0.711,0.321,0.577,0.534,��,1.1,��
2023/08/18,07:30,0.522,0.781,0.484,0.961,0.710,0.322,0.574,0.533,���쓌,1.2,��
2023/08/18,07:40,0.521,0.780,0.486,0.962,0.711,0.320,0.574,0.532,��,1.1,��
2023/08/18,07:50,0.521,0.782,0.484,0.962,0.710,0.321,0.575,0.534,���쓌,1.2,��
2023/08/18,08:00,0.521,0.781,0.484,0.964,0.710,0.323,0.576,0.533,���k��,0.6,��
2023/08/18,08:10,0.522,0.783,0.485,0.962,0.711,0.323,0.574,0.533,��,2.3,��
2023/08/18,08:20,0.522,0.781,0.483,0.964,0.711,0.322,0.575,0.534,���쓌,2.0,��
2023/08/18,08:30,0.522,0.782,0.485,0.963,0.712,0.323,0.575,0.533,���쓌,2.2,��
2023/08/18,08:40,0.522,0.781,0.486,0.963,0.710,0.323,0.577,0.533,�쓌,2.0,��
2023/08/18,08:50,0.522,0.782,0.485,0.962,0.712,0.322,0.575,0.534,�쓌,2.3,��
2023/08/18,09:00,0.523,0.782,0.485,0.965,0.711,0.322,0.577,0.531,�쓌,2.5,��
2023/08/18,09:10,0.523,0.783,0.485,0.965,0.713,0.321,0.574,0.532,�쓌,2.9,��
2023/08/18,09:20,0.524,0.785,0.484,0.966,0.713,0.321,0.574,0.532,���쓌,2.6,��
2023/08/18,09:30,0.524,0.786,0.486,0.963,0.713,0.321,0.576,0.531,�쓌,2.9,��
2023/08/18,09:40,0.524,0.787,0.485,0.965,0.715,0.321,0.576,0.532,�쓌,3.0,��
2023/08/18,09:50,0.524,0.785,0.487,0.963,0.715,0.321,0.574,0.533,���쓌,2.2,��
2023/08/18,10:00,0.525,0.787,0.487,0.964,0.714,0.321,0.575,0.533,�쓌,2.6,��
2023/08/18,10:10,0.524,0.787,0.486,0.965,0.716,0.321,0.574,0.533,�쓌,3.6,��
2023/08/18,10:20,0.526,0.786,0.487,0.964,0.715,0.323,0.573,0.533,��쓌,3.1,��
2023/08/18,10:30,0.524,0.788,0.486,0.965,0.717,0.322,0.574,0.532,��쓌,3.5,��
2023/08/18,10:40,0.524,0.787,0.488,0.967,0.716,0.322,0.575,0.532,��쓌,3.8,��
2023/08/18,10:50,0.525,0.788,0.486,0.966,0.716,0.322,0.573,0.534,�쓌,4.4,��
2023/08/18,11:00,0.524,0.790,0.488,0.965,0.715,0.322,0.573,0.533,��쓌,4.3,��
2023/08/18,11:10,0.527,0.789,0.489,0.966,0.719,0.321,0.575,0.533,��쓌,6.1,��
2023/08/18,11:20,0.527,0.789,0.488,0.966,0.717,0.322,0.574,0.533,��쓌,4.8,��
2023/08/18,11:30,0.527,0.791,0.488,0.967,0.719,0.323,0.574,0.532,��쓌,6.2,��
2023/08/18,11:40,0.527,0.789,0.488,0.969,0.719,0.321,0.576,0.535,��쓌,5.4,��
2023/08/18,11:50,0.526,0.791,0.489,0.966,0.719,0.323,0.575,0.534,�쓌,4.9,��
2023/08/18,12:00,0.527,0.791,0.489,0.967,0.720,0.323,0.575,0.534,��쓌,5.9,��
2023/08/18,12:10,0.527,0.791,0.489,0.967,0.719,0.323,0.576,0.535,��쓌,7.2,��
2023/08/18,12:20,0.528,0.793,0.490,0.966,0.721,0.322,0.574,0.534,��쓌,7.6,��
2023/08/18,12:30,0.528,0.791,0.492,0.963,0.721,0.322,0.573,0.535,��쓌,6.2,��
2023/08/18,12:40,0.528,0.793,0.490,0.965,0.722,0.323,0.575,0.536,��쓌,5.0,��
2023/08/18,12:50,0.528,0.792,0.491,0.966,0.721,0.323,0.576,0.536,��쓌,5.1,��
2023/08/18,13:00,0.528,0.793,0.491,0.969,0.721,0.322,0.576,0.536,��쓌,4.1,��
2023/08/18,13:10,0.528,0.795,0.491,0.971,0.721,0.323,0.576,0.536,��쓌,4.5,��
2023/08/18,13:20,0.528,0.794,0.490,0.969,0.722,0.323,0.575,0.534,��쓌,4.2,��
2023/08/18,13:30,0.529,0.793,0.491,0.970,0.723,0.322,0.578,0.535,��쓌,4.3,��
2023/08/18,13:40,0.530,0.794,0.491,0.971,0.723,0.322,0.578,0.535,��쓌,5.5,��
2023/08/18,13:50,0.528,0.795,0.491,0.969,0.723,0.324,0.577,0.536,��쓌,5.0,��
2023/08/18,14:00,0.528,0.793,0.490,0.969,0.723,0.323,0.578,0.536,��쓌,6.7,��
2023/08/18,14:10,0.527,0.795,0.493,0.972,0.723,0.324,0.577,0.535,��쓌,6.1,��
2023/08/18,14:20,0.529,0.795,0.493,0.971,0.725,0.325,0.577,0.535,�쓌,6.3,��
2023/08/18,14:30,0.530,0.794,0.490,0.970,0.722,0.323,0.576,0.535,��쓌,8.0,��
2023/08/18,14:40,0.531,0.795,0.491,0.972,0.724,0.325,0.578,0.534,��쓌,6.0,��
2023/08/18,14:50,0.532,0.794,0.493,0.971,0.724,0.325,0.578,0.535,��쓌,6.6,��
2023/08/18,15:00,0.530,0.795,0.492,0.972,0.725,0.325,0.576,0.534,��쓌,7.8,��
2023/08/18,15:10,0.530,0.795,0.494,0.969,0.725,0.323,0.578,0.534,��쓌,6.6,��
2023/08/18,15:20,0.531,0.796,0.493,0.970,0.724,0.323,0.576,0.533,��쓌,6.8,��
2023/08/18,15:30,0.530,0.795,0.492,0.971,0.726,0.323,0.576,0.535,��쓌,7.5,��
2023/08/18,15:40,0.530,0.796,0.491,0.972,0.724,0.323,0.576,0.533,��쓌,7.1,��
2023/08/18,15:50,0.530,0.795,0.493,0.971,0.726,0.323,0.575,0.532,��쓌,7.8,��
2023/08/18,16:00,0.531,0.793,0.490,0.972,0.725,0.323,0.577,0.533,��쓌,9.6,��
2023/08/18,16:10,0.531,0.796,0.492,0.975,0.724,0.324,0.575,0.532,��쓌,9.2,��
2023/08/18,16:20,0.529,0.796,0.491,0.972,0.723,0.324,0.576,0.533,��,8.6,��
2023/08/18,16:30,0.531,0.796,0.492,0.972,0.725,0.324,0.574,0.534,��쓌,8.8,��
2023/08/18,16:40,0.532,0.796,0.492,0.973,0.725,0.324,0.576,0.534,��쓌,10.0,��
2023/08/18,16:50,0.531,0.795,0.490,0.974,0.724,0.323,0.576,0.533,��쓌,10.0,��
2023/08/18,17:00,0.530,0.797,0.490,0.974,0.725,0.323,0.577,0.533,��쓌,10.5,��
2023/08/18,17:10,0.530,0.797,0.492,0.974,0.724,0.323,0.575,0.535,��,9.8,��
2023/08/18,17:20,0.530,0.797,0.492,0.975,0.725,0.324,0.576,0.535,��쓌,10.0,��
2023/08/18,17:30,0.531,0.796,0.491,0.975,0.724,0.323,0.575,0.534,��,10.2,��
2023/08/18,17:40,0.530,0.797,0.490,0.975,0.724,0.323,0.575,0.534,��,10.0,��
2023/08/18,17:50,0.529,0.796,0.492,0.975,0.724,0.323,0.576,0.533,��쓌,9.8,��
2023/08/18,18:00,0.531,0.798,0.493,0.975,0.726,0.324,0.575,0.534,��,8.9,��
2023/08/18,18:10,0.529,0.797,0.493,0.974,0.726,0.323,0.575,0.534,��쓌,10.7,��
2023/08/18,18:20,0.530,0.796,0.493,0.974,0.725,0.322,0.576,0.534,��쓌,13.0,��
2023/08/18,18:30,0.527,0.798,0.492,0.974,0.726,0.322,0.574,0.534,��쓌,10.9,��
2023/08/18,18:40,0.529,0.796,0.491,0.976,0.725,0.323,0.574,0.534,��,9.8,��
2023/08/18,18:50,0.530,0.795,0.492,0.974,0.727,0.325,0.575,0.533,��쓌,10.9,��
2023/08/18,19:00,0.530,0.800,0.492,0.975,0.725,0.322,0.575,0.533,��,9.8,��
2023/08/18,19:10,0.529,0.797,0.493,0.973,0.727,0.323,0.575,0.533,��,9.7,��
2023/08/18,19:20,0.529,0.800,0.492,0.977,0.725,0.324,0.574,0.533,��,9.8,��
2023/08/18,19:30,0.531,0.798,0.493,0.975,0.724,0.324,0.575,0.534,��쓌,9.6,��
2023/08/18,19:40,0.530,0.799,0.493,0.975,0.725,0.324,0.575,0.533,��쓌,10.2,��
2023/08/18,19:50,0.530,0.797,0.492,0.974,0.727,0.323,0.576,0.533,��쓌,10.8,��
2023/08/18,20:00,0.529,0.798,0.492,0.972,0.728,0.325,0.576,0.534,��,10.2,��
2023/08/18,20:10,0.529,0.797,0.495,0.975,0.724,0.326,0.576,0.534,��쓌,7.9,��
2023/08/18,20:20,0.531,0.799,0.493,0.975,0.726,0.323,0.575,0.534,��,7.3,��
2023/08/18,20:30,0.529,0.799,0.494,0.976,0.728,0.324,0.577,0.534,��,7.2,��
2023/08/18,20:40,0.530,0.798,0.493,0.977,0.725,0.323,0.576,0.533,��쓌,6.2,��
2023/08/18,20:50,0.531,0.797,0.492,0.977,0.728,0.324,0.576,0.534,��,7.2,��
2023/08/18,21:00,0.531,0.799,0.492,0.976,0.726,0.324,0.575,0.535,��,7.1,��
2023/08/18,21:10,0.530,0.800,0.493,0.976,0.727,0.325,0.577,0.535,��,5.9,��
2023/08/18,21:20,0.531,0.799,0.494,0.976,0.726,0.324,0.576,0.533,��,4.7,��
2023/08/18,21:30,0.531,0.801,0.493,0.977,0.727,0.325,0.578,0.534,��,3.2,��
2023/08/18,21:40,0.530,0.798,0.493,0.977,0.725,0.325,0.576,0.536,��,3.2,��
2023/08/18,21:50,0.531,0.797,0.493,0.975,0.726,0.325,0.575,0.535,��,2.6,��
2023/08/18,22:00,0.532,0.801,0.493,0.976,0.726,0.324,0.577,0.535,��,3.1,��
2023/08/18,22:10,0.530,0.797,0.493,0.976,0.726,0.324,0.575,0.535,��쐼,2.5,��
2023/08/18,22:20,0.533,0.798,0.494,0.976,0.727,0.325,0.576,0.535,��,2.6,��
2023/08/18,22:30,0.530,0.798,0.492,0.978,0.728,0.323,0.576,0.535,��,3.5,��
2023/08/18,22:40,0.533,0.798,0.493,0.977,0.728,0.324,0.577,0.535,��,4.0,��
2023/08/18,22:50,0.533,0.799,0.494,0.975,0.728,0.325,0.577,0.534,��,4.4,��
2023/08/18,23:00,0.531,0.799,0.493,0.978,0.726,0.325,0.577,0.535,��,4.4,��
2023/08/18,23:10,0.532,0.799,0.493,0.979,0.727,0.323,0.576,0.536,��,4.9,��
2023/08/18,23:20,0.533,0.799,0.495,0.977,0.728,0.325,0.576,0.536,��,4.7,��
2023/08/18,23:30,0.532,0.800,0.493,0.979,0.728,0.324,0.576,0.534,��,4.0,��
2023/08/18,23:40,0.531,0.799,0.495,0.977,0.727,0.324,0.576,0.534,��,3.3,��
2023/08/18,23:50,0.533,0.798,0.493,0.978,0.727,0.324,0.576,0.534,��쐼,2.2,��
